Regional Weather Roundup
Issued by NWS Charleston, SC

Home | Current Version | Previous Version | Text Only | Print | Product List | Glossary On
Versions: 1 2 3 4 5 6 7 8 9 10 11 12 13 14 15 16 17 18 19 20 21 22 23 24 25 26 27 28 29 30 31 32 33 34 35 36 37 38 39 40 41 42 43 44 45 46 47 48 49 50
000
ASUS42 KCHS 301828
RWRCHS

REGIONAL WEATHER ROUNDUP
NATIONAL WEATHER SERVICE CHARLESTON SC
200 PM EDT SAT APR 30 2016

NOTE: "FAIR" INDICATES FEW OR NO CLOUDS BELOW 12,000 FEET WITH NO
SIGNIFICANT WEATHER AND/OR OBSTRUCTIONS TO VISIBILITY.

NOT ALL STATIONS ARE QUALITY CONTROLLED. USE DATA WITH CAUTION...
ESPECIALLY DEWPOINT OBSERVATIONS.

SCZ027-030-031-034>040-042>050-301900-
...SOUTHEAST SOUTH CAROLINA...

CITY           SKY/WX    TMP DP  RH WIND       PRES   REMARKS
N CHARLESTON   PTSUNNY   82  68  62 SE15      30.04F
6HR MIN TEMP:  72; 6HR MAX TEMP:  84;

WATERFRONT PRK   N/A     78  73  84 E9        30.03F
MOUNT PLEASANT FAIR      79  72  78 E9        30.06S
JOHNS ISLAND   CLOUDY    81  73  78 E9        30.05S
PINOPOLIS        N/A     84  70  61 S6        29.95F
MONCKS CORNER  FAIR      79  63  57 SE10G17   30.03F
SUMMERVILLE    FAIR      84  68  58 SE7       30.04F
BEAUFORT MCAS  PTSUNNY   83  70  64 SE8       30.03S
6HR MIN TEMP:  72; 6HR MAX TEMP:  86;

BEAUFORT ARPT  FAIR      81  70  69 S7        30.03S
HILTON HEAD IS CLOUDY    86  73  66 SE6       30.05S HX  93
WALTERBORO     PTCLDY    84  64  51 SE10      30.03F
ALLENDALE      FAIR      86  66  51 SE13      30.00F

...SOUTHERN MIDLANDS AND PEE DEE...

CITY           SKY/WX    TMP DP  RH WIND       PRES   REMARKS
GEORGETOWN     FAIR      77  68  73 E12       30.08S
KINGSTREE      CLOUDY    81  64  57 SE8       30.03F
ORANGEBURG     MOSUNNY   85  66  53 SE8G17    30.02F
6HR MIN TEMP:  68; 6HR MAX TEMP:  85;

BARNWELL       FAIR      90  66  45 SE10      30.01F HX  92
AIKEN          FAIR      86  61  42 S13G18    30.04F
MANNING        NOT AVBL
COLUMBIA       PTSUNNY   85  65  51 SE7       30.01F
6HR MIN TEMP:  66; 6HR MAX TEMP:  85;

SUMTER         CLOUDY    83  66  56 VRB7      30.02F
6HR MIN TEMP:  68; 6HR MAX TEMP:  83;

FLORENCE       CLOUDY    79  66  64 SE8       30.07S
6HR MIN TEMP:  68; 6HR MAX TEMP:  79;

MYRTLE BEACH   CLOUDY    75  63  64 SE18      30.10F
N MYRTLE BEACH CLOUDY    72  63  73 E13G23    30.09S
6HR MIN TEMP:  65; 6HR MAX TEMP:  73;


$$

GAZ063-065-086>088-099>101-113>116-118-119-134>141-150-301900-
...SOUTHEAST GEORGIA...

CITY           SKY/WX    TMP DP  RH WIND       PRES   REMARKS
SAVANNAH ARPT  PTSUNNY   86  63  45 S16       30.01F
6HR MIN TEMP:  72; 6HR MAX TEMP:  86;

HUNTER AAF     SUNNY     84  70  61 S13       30.00S
6HR MIN TEMP:  73; 6HR MAX TEMP:  84;

FORT STEWART   MOSUNNY   87  62  42 E12       29.98F
6HR MIN TEMP:  70; 6HR MAX TEMP:  87;

STATESBORO     PTSUNNY   91  67  45 S15G21    30.00F HX  94
SYLVANIA       CLOUDY    87  68  52 SE9       30.01F HX  90
CLAXTON        FAIR      88  62  41 E10       29.99F

...CSRA...CENTRAL AND FAR SOUTHEAST GEORGIA...

CITY           SKY/WX    TMP DP  RH WIND       PRES   REMARKS
THOMSON        MOSUNNY   88  65  46 CALM      30.03F HX  90
AUGUSTA-BUSH   MOSUNNY   86  64  47 SE13G18   29.99F
6HR MIN TEMP:  65; 6HR MAX TEMP:  88;

AUGUSTA-DANIEL MOSUNNY   87  62  43 S12       30.01F
SWAINSBORO     FAIR      86  59  39 S8        30.00F
VIDALIA        MOSUNNY   88  57  35 SE8       29.99F
EASTMAN        MOCLDY    91  64  40 SE9       29.99F HX  91
HAZLEHURST     FAIR      90  60  36 S8        29.97F
ALMA           SUNNY     88  60  38 SE9G16    29.98F
6HR MIN TEMP:  70; 6HR MAX TEMP:  89;

WAYCROSS       SUNNY     89  63  42 E3        29.97F
JESUP          FAIR      91  61  35 S10G16    29.99F HX  91
BAXLEY         FAIR      90  61  37 S8        29.98F
BRUNSWICK      MOSUNNY   88  70  55 SE14      30.02S HX  92
SAINT SIMONS   MOSUNNY   81  73  76 SE10      30.01S
6HR MIN TEMP:  72; 6HR MAX TEMP:  81;


$$

SCZ027-028-034-036>038-045-046-048>050-GAZ119-141-301900-
...LAKE AND SUPPLEMENTAL COASTAL OBSERVATIONS...

STATION/POSITION TIME  TEMP    WIND        PRES    WAVE   SWELL
                       AIR SEA DIR/SP/G            HT/PER HT/PER/DIR
                 (UTC) (F)     (DEG/KT/KT) (MB)    (FT/S) (FT/S/D)
WINYAH BAY       1700   71      90/ 11     1018.0S
LAKE MURRAY      1700   79      CALM  /  5 1016.6F
ACE BASIN NERRS  1700   81     130/  4     1018.0S
FORT PULASKI     1800   76 73   90/  9/ 15 1017.2F
SAPELO ISLAND    1800   85     130/  8     1016.0S

$$

ANZ835-935-AMZ111-154-330-350-352-354-370-450-454-472-301900-
...C-MAN AND BUOY OBSERVATIONS...

STATION/POSITION TIME  TEMP    WIND        PRES    WAVE   SWELL
                       AIR SEA DIR/SP/G            HT/PER HT/PER/DIR
                 (UTC) (F)     (DEG/KT/KT) (MB)    (FT/S) (FT/S/D)
BUOY 41004       1750   75 73  100/ 10/ 12 1017.2F   2/ 9   2/ 9
BUOY 41008       NOT AVBL
FOLLY BEACH CMAN 1800   73      90/  9/ 10 1017.9F
CAPERS NEARSHORE 1708   72 71   70/  8/ 12 1017.9S
FRIPP NEARSHORE  1808   75 74   90/  6/  8 1016.6F


STATION/POSITION TIME  TEMP    WIND        PRES    WAVE   SWELL
                       AIR SEA DIR/SP/G            HT/PER HT/PER/DIR
                 (UTC) (F)     (DEG/KT/KT) (MB)    (FT/S) (FT/S/D)
5E ST. MARYS GA  1721      74                N/A     2/10
FRYING PAN BUOY  1800   69 70   50/ 14/ 16 1018.5F
BUOY 41025       1750   59 74   10/ 14/ 17 1020.7R   5/10   5/ 60/10
CAPE LOOKOUT NC  1800   63      40/ 12/ 14 1020.2F
BUOY 41002       1750   70 72   60/ 12/ 14 1017.9S   4/ 5   3/350/ 5
BUOY 41010       1720   77 78  160/  8/ 10 1017.0S
ST AUGUSTINE FL  1800   75 73  130/ 11/ 12 1016.5F


$$




USA.gov is the U.S. government's official web portal to all federal, state and local government web resources and services.